CAPE
0 0 0 0 0 1 0 54 167 165 265 428 238 440 46 5 49 24 19 4 11 9 1 2 54 77 131 448 492 662 787 691 867 1031 1246 1468 1554 1190 1021 562 180 109 316 917
0 0 0 0 0 0 4 58 76 77 222 307 162 507 203 71 6 6 14 14 1 19 16 19 37 120 207 338 392 663 813 913 1129 1338 1297 1408 1448 1107 1187 1155 619 919 366 811
0 0 0 0 0 1 2 3 0 8 55 48 289 585 536 370 202 4 10 53 97 201 86 104 140 144 289 412 418 564 848 1056 1212 1412 1193 1546 976 787 934 838 811 1157 1294 1206
0 0 0 0 0 0 0 2 7 0 2 27 63 376 480 515 442 206 74 147 217 286 207 203 279 301 347 401 479 714 1011 1183 1354 1274 1209 1443 1512 1033 545 189 380 1286 1933 1438
0 0 0 0 0 0 0 9 8 15 15 25 22 490 349 7 481 289 203 239 284 274 357 361 376 430 412 350 421 796 1079 1304 1340 1192 1269 1442 1332 1119 1201 1264 98 1926 2129 1915
0 0 0 0 0 0 0 1 0 2 53 74 39 276 185 489 434 493 283 417 341 312 443 533 485 626 552 500 556 714 1021 1129 1181 1066 1211 1712 1368 1023 1359 1801 1393 1917 2116 1977
0 0 0 0 0 0 0 0 0 0 0 13 3 17 1 493 519 332 415 594 423 348 443 607 646 678 817 778 803 799 1137 1060 1053 1058 1255 1702 1877 1341 1548 1760 1531 1801 1853 1115
0 0 0 0 0 0 0 0 0 0 0 0 69 53 0 131 456 239 127 493 486 459 459 603 707 660 926 960 992 1044 1107 1242 1262 1293 1301 1554 2129 1947 1766 1802 1916 2017 1900 1455
0 0 0 0 0 0 0 0 0 0 0 0 0 0 5 68 197 118 236 256 545 525 577 583 677 776 808 1097 1094 1187 1172 1261 1499 1560 1552 1561 1653 2121 2062 2061 1704 1749 1853 1836
0 0 0 0 0 0 0 0 0 0 0 0 0 0 0 2 63 96 128 264 97 440 568 646 587 727 772 1180 1243 1386 1387 1324 1512 1774 1784 1799 1910 1929 2124 2254 1952 1885 1706 1588
0 0 0 0 0 0 0 0 0 0 0 0 0 0 0 0 0 29 52 90 118 379 564 670 529 657 823 1130 1347 1617 1614 1608 1762 1682 2011 2239 2286 2363 2231 2201 2224 2227 2094 1670
0 0 0 0 0 0 0 0 0 0 0 0 0 0 0 0 0 22 36 26 245 797 196 666 611 697 811 1011 1463 569 1947 1849 1957 1958 1937 2173 2500 2507 2519 2221 2259 2525 2248 2177
0 0 0 0 0 0 0 0 0 0 0 0 0 0 0 0 6 30 32 59 73 554 38 418 537 645 664 968 1409 273 890 2147 2108 2178 2208 2317 2407 2464 2438 2497 2280 2092 2224 2154
0 0 0 0 0 0 0 0 0 0 0 0 0 0 7 9 6 45 51 230 333 339 271 285 196 557 657 1041 1905 268 287 2314 2166 2309 2538 2473 2582 2470 2540 1366 1881 2296 2278 2373
0 0 0 0 0 0 0 0 0 0 0 0 0 0 13 4 51 94 92 320 423 498 352 15 26 340 667 945 1694 1675 1797 2232 2224 2396 2597 2673 2670 2519 2612 2477 2512 2507 2050 2053
0 0 0 0 0 0 0 0 0 0 0 0 0 0 0 158 258 415 306 398 391 358 307 149 321 328 721 1050 1259 1679 1990 2142 2329 2374 2344 2475 2458 2220 1690 1222 1669 1600 2260 2733
8 0 0 0 0 0 0 0 0 0 0 0 0 0 33 452 772 746 576 485 643 641 501 372 294 625 1141 1367 1633 1860 2129 2299 2410 2137 1872 1442 1146 849 953 1759 2172 2160 2156 2655
41 1 0 0 0 0 0 0 0 0 24 10 0 0 125 732 1089 1283 1161 1034 1105 1064 956 728 1270 1634 1938 1992 2062 2266 2358 2399 2313 1964 1680 1636 1824 2050 2291 2520 2895 2909 2687 2522
0 0 0 1 0 0 0 0 9 22 80 76 0 91 548 865 1118 1335 1476 1605 1655 1945 2038 2483 2409 2372 2326 2192 2463 2431 2347 2237 2097 1954 1939 2182 2497 2642 2837 2734 2835 2328 1673 1034
0 0 0 0 0 0 0 42 157 107 81 239 179 243 424 594 591 959 1633 1954 1987 1953 2039 2213 2790 2523 2474 2557 2606 2541 2449 2070 1540 2160 2603 2925 3184 3010 2872 2040 1265 918 514 473
0 4 3 0 0 0 78 120 106 70 32 353 310 243 260 312 394 818 1436 1709 1908 1772 2042 2169 2673 2944 2780 2873 2832 2476 2042 1306 2240 3298 3387 3170 2907 1837 1006 777 623 662 564 814
8 0 7 9 0 0 112 94 67 5 378 316 156 252 209 225 396 673 716 512 422 752 1205 1596 2228 3071 3069 2904 2453 1421 1621 3004 3212 2464 1926 1166 864 793 867 1095 1107 732 885 993
16 14 30 30 90 84 26 11 2 0 11 277 278 154 112 129 185 262 210 65 173 449 638 1096 1359 2284 2913 2516 2018 2126 2721 2522 2095 1636 1109 636 715 1002 1226 683 666 951 1292 930
85 0 31 44 115 106 125 52 60 54 66 51 148 139 61 216 123 80 51 10 84 0 179 298 796 1571 2238 2434 2349 1573 1872 1900 1451 1003 758 892 828 800 907 1175 1351 1177 64 0
69 32 3 0 0 0 140 34 20 46 95 46 24 41 58 5 0 36 0 1 0 0 26 259 612 1776 1570 1548 1485 1785 2199 1852 1319 1167 1158 1263 1294 1209 872 757 129 0 0 0
26 54 69 56 0 0 8 18 50 12 47 0 94 103 79 0 0 245 263 134 94 155 373 474 1160 2070 1877 2093 2095 2120 2064 1751 1870 1588 1636 1215 506 191 71 0 0 0 0 0
CIN
-0 -0 -0 -0 -0 -94 -0 -98 -56 -124 -183 -110 -88 -84 -221 -226 -235 -249 -310 -346 -382 -416 -364 -160 -316 -279 -188 -115 -144 -132 -122 -105 -88 -63 -55 -38 -31 -47 -83 -99 -173 -160 -174 -106
-0 -0 -0 -0 -0 -0 -158 -91 -91 -85 -143 -103 -136 -107 -233 -247 -238 -238 -239 -291 -39 -281 -345 -340 -340 -268 -216 -156 -150 -138 -135 -106 -77 -55 -55 -44 -30 -56 -62 -69 -114 -112 -159 -119
-0 -0 -0 -0 -0 -51 -81 -36 -0 -62 -84 -139 -116 -132 -173 -193 -219 -277 -254 -207 -205 -171 -215 -214 -249 -251 -214 -192 -151 -116 -123 -113 -97 -49 -59 -46 -92 -111 -91 -98 -97 -87 -76 -70
-0 -0 -0 -0 -0 -0 -0 -12 -66 -5 -40 -90 -101 -63 -179 -179 -223 -298 -279 -226 -167 -177 -183 -169 -205 -226 -198 -177 -188 -118 -118 -110 -84 -58 -41 -42 -32 -33 -71 -107 -96 -56 -43 -52
-0 -0 -0 -0 -0 -0 -0 -91 -42 -73 -103 -123 -111 -61 -108 -92 -230 -297 -259 -256 -202 -183 -184 -160 -185 -182 -174 -193 -193 -154 -136 -118 -88 -86 -54 -49 -43 -33 -38 -57 -117 -39 -43 -34
-0 -0 -0 -0 -0 -0 -0 -43 -0 -90 -164 -105 -63 -49 -71 -173 -168 -236 -262 -246 -238 -186 -170 -158 -169 -192 -187 -199 -194 -195 -154 -139 -124 -103 -74 -43 -33 -41 -30 -23 -43 -41 -34 -31
-0 -0 -0 -0 -0 -0 -0 -0 -0 -0 -0 -64 -88 -57 -35 -140 -201 -186 -143 -191 -191 -170 -156 -161 -189 -212 -199 -179 -221 -215 -171 -154 -148 -124 -95 -62 -36 -37 -28 -21 -29 -27 -33 -61
-0 -0 -0 -0 -0 -0 -0 -0 -0 -0 -0 -0 -93 -15 -0 -177 -219 -233 -292 -225 -168 -139 -147 -159 -164 -208 -207 -178 -202 -200 -195 -154 -164 -147 -123 -83 -48 -33 -33 -28 -27 -26 -32 -48
-0 -0 -0 -0 -0 -0 -0 -0 -0 -0 -0 -0 -0 -0 -128 -207 -229 -286 -274 -269 -208 -182 -151 -118 -154 -172 -228 -194 -182 -198 -204 -183 -175 -149 -125 -95 -70 -38 -35 -28 -36 -39 -43 -48
-0 -0 -0 -0 -0 -0 -0 -0 -0 -0 -0 -0 -0 -0 -0 -63 -152 -218 -199 -213 -290 -212 -171 -115 -140 -150 -211 -195 -202 -211 -207 -176 -168 -162 -134 -105 -76 -68 -51 -35 -33 -32 -39 -45
-0 -0 -0 -0 -0 -0 -0 -0 -0 -0 -0 -0 -0 -0 -0 -0 -0 -154 -195 -190 -299 -178 -192 -166 -157 -169 -196 -203 -206 -194 -204 -186 -197 -193 -136 -109 -80 -63 -65 -58 -37 -32 -38 -48
-0 -0 -0 -0 -0 -0 -0 -0 -0 -0 -0 -0 -0 -0 -0 -0 -0 -138 -155 -281 -247 -69 -173 -213 -189 -98 -218 -216 -237 -178 -181 -178 -195 -191 -160 -132 -83 -79 -58 -65 -57 -41 -31 -35
-0 -0 -0 -0 -0 -0 -0 -0 -0 -0 -0 -0 -0 -0 -0 -0 -87 -149 -146 -175 -227 -197 -247 -288 -129 -159 -199 -236 -260 -224 -266 -174 -202 -189 -154 -143 -103 -90 -79 -63 -66 -65 -45 -34
-0 -0 -0 -0 -0 -0 -0 -0 -0 -0 -0 -0 -0 -0 -49 -59 -161 -117 -267 -215 -196 -185 -221 -280 -205 -267 -198 -224 -272 -365 -526 -187 -196 -194 -164 -145 -115 -101 -83 -136 -78 -54 -48 -35
-0 -0 -0 -0 -0 -0 -0 -0 -0 -0 -0 -0 -0 -0 -64 -53 -53 -113 -249 -281 -229 -174 -223 -320 -378 -294 -227 -251 -236 -207 -207 -198 -212 -187 -178 -148 -121 -92 -72 -76 -56 -44 -62 -51
-0 -0 -0 -0 -0 -0 -0 -0 -0 -0 -0 -0 -0 -0 -0 -123 -80 -156 -232 -229 -162 -144 -200 -289 -272 -297 -258 -253 -176 -225 -227 -210 -197 -198 -178 -143 -111 -101 -118 -150 -122 -103 -39 -21
-79 -0 -0 -0 -0 -0 -0 -0 -0 -0 -0 -0 -0 -0 -91 -100 -166 -201 -230 -174 -108 -129 -206 -264 -294 -292 -250 -235 -186 -203 -204 -212 -198 -220 -192 -174 -174 -177 -153 -96 -59 -47 -33 -22
-74 -28 -0 -0 -0 -0 -0 -0 -0 -0 -34 -31 -0 -0 -122 -234 -380 -335 -333 -195 -217 -230 -242 -233 -270 -297 -284 -251 -209 -201 -196 -203 -224 -201 -199 -168 -120 -93 -67 -43 -18 -19 -25 -29
-0 -0 -0 -17 -0 -0 -0 -0 -47 -39 -49 -103 -0 -186 -209 -272 -210 -269 -390 -322 -350 -374 -386 -309 -312 -294 -266 -218 -206 -187 -202 -219 -217 -211 -175 -119 -70 -54 -47 -47 -32 -50 -64 -76
-1 -0 -0 -0 -0 -0 -5 -89 -92 -108 -34 -144 -144 -182 -137 -133 -62 -164 -440 -357 -327 -325 -365 -357 -252 -252 -205 -209 -206 -188 -190 -220 -220 -185 -120 -78 -46 -44 -54 -89 -96 -102 -102 -86
-0 -45 -15 -0 -0 -0 -235 -224 -215 -30 -45 -116 -102 -121 -115 -65 -128 -264 -421 -355 -322 -320 -289 -343 -230 -138 -203 -230 -213 -206 -222 -222 -189 -112 -77 -67 -64 -111 -137 -127 -109 -90 -90 -64
-59 -0 -68 -51 -0 -0 -288 -110 -50 -42 -172 -109 -141 -163 -194 -271 -358 -376 -431 -313 -298 -245 -296 -382 -300 -94 -186 -231 -221 -250 -214 -175 -122 -135 -133 -152 -154 -138 -126 -89 -79 -92 -64 -36
-79 -125 -67 -72 -88 -255 -411 -378 -190 -0 -194 -240 -132 -329 -364 -310 -379 -394 -331 -392 -398 -365 -198 -180 -255 -207 -100 -192 -200 -189 -181 -175 -158 -140 -144 -150 -146 -117 -94 -106 -88 -52 -35 -37
-201 -0 -137 -122 -150 -212 -216 -457 -414 -442 -486 -396 -309 -357 -477 -350 -470 -539 -603 -405 -376 -0 -133 -96 -256 -191 -117 -150 -142 -166 -179 -153 -140 -160 -157 -143 -116 -117 -99 -63 -39 -35 -80 -0
-261 -322 -21 -0 -0 -0 -152 -252 -386 -396 -450 -520 -568 -401 -404 -417 -0 -524 -0 -216 -0 -0 -351 -262 -287 -133 -119 -133 -123 -111 -93 -113 -137 -150 -141 -109 -101 -85 -97 -129 -99 -0 -0 -0
-325 -199 -179 -180 -0 -0 -51 -331 -474 -253 -344 -0 -515 -368 -433 -0 -0 -480 -461 -550 -468 -370 -329 -344 -236 -115 -146 -119 -106 -107 -85 -103 -84 -129 -107 -122 -182 -230 -258 -0 -0 -0 -0 -0
Wind_Speed
14 6 18 10 15 11 18 18 16 20 19 19 21 18 23 23 22 22 20 21 21 20 21 23 23 23 22 23 20 21 19 17 18 15 17 17 18 16 19 20 19 19 18 17
18 7 29 11 6 9 12 15 16 18 18 18 20 18 19 22 20 21 20 20 20 19 20 21 22 22 22 23 22 21 21 20 21 20 21 21 20 18 19 20 19 21 18 17
19 28 27 26 4 5 5 7 10 12 12 18 18 16 16 19 16 18 17 17 21 20 21 22 21 22 23 22 23 22 21 22 23 22 21 17 9 13 19 19 20 21 18 16
25 31 30 28 16 8 1 2 9 15 13 4 24 12 12 12 12 11 19 23 25 21 22 23 21 21 22 23 23 22 21 22 23 23 22 21 20 18 19 19 20 19 18 17
23 22 22 27 33 9 5 4 5 8 13 9 13 8 5 14 12 21 25 26 27 26 25 23 25 23 23 22 22 21 21 22 22 22 22 21 20 20 17 16 19 20 18 16
32 27 25 26 27 22 11 6 11 5 5 10 14 3 4 9 16 19 25 21 27 29 26 27 28 25 25 25 23 21 20 21 21 21 21 20 20 16 14 20 18 20 17 16
30 34 29 23 24 14 4 4 14 12 6 10 13 7 4 15 18 16 21 22 25 29 25 25 27 26 25 27 25 23 22 21 21 20 19 19 18 18 15 15 20 19 17 17
25 30 24 19 18 19 18 16 16 18 16 21 15 12 17 6 20 11 8 15 19 27 29 26 30 25 24 26 25 24 22 21 21 20 17 16 14 15 18 16 11 15 17 18
22 28 23 25 24 18 24 29 19 23 20 21 18 16 19 12 8 12 11 8 23 25 27 28 27 28 20 22 24 25 23 22 21 20 16 13 12 12 11 15 13 13 14 19
23 28 27 28 24 26 24 19 24 20 23 23 19 18 14 7 8 14 18 20 9 12 27 31 27 27 21 22 22 25 24 22 21 17 15 12 10 10 10 8 11 15 20 20
13 22 31 22 27 25 19 23 20 17 18 20 20 19 13 1 9 13 21 10 9 19 10 27 36 34 23 21 21 24 23 22 18 17 15 12 11 11 9 6 20 21 12 15
5 18 27 25 22 20 11 10 16 22 22 18 17 24 20 3 9 12 15 9 17 26 20 23 16 26 30 23 11 20 28 22 18 16 15 13 13 15 20 28 28 26 11 10
10 22 34 32 25 17 20 19 19 19 19 25 22 24 21 2 7 12 10 9 19 23 23 29 25 30 27 26 17 18 26 23 17 16 15 14 15 16 18 23 26 25 23 14
13 16 24 31 25 17 23 28 28 21 27 27 22 28 10 4 9 11 2 7 17 24 25 24 25 25 27 30 20 24 22 22 18 15 14 13 14 14 16 18 22 23 21 19
16 22 22 29 25 23 27 28 34 26 29 25 23 18 3 2 1 8 11 14 21 25 24 24 16 22 23 23 20 20 18 19 16 13 13 11 11 12 12 10 5 6 4 6
21 20 21 32 27 26 29 29 27 29 29 28 20 18 17 12 4 5 12 18 20 22 22 17 18 18 19 23 21 19 16 14 12 11 9 8 8 10 14 14 13 11 5 8
20 19 21 29 28 26 29 27 24 24 32 34 22 22 15 9 3 2 6 15 17 17 19 18 17 18 18 23 22 19 14 12 10 8 8 10 10 12 12 11 8 8 7 14
25 24 20 23 26 33 30 27 27 24 21 24 27 23 14 6 2 3 3 8 2 2 12 15 13 11 15 18 17 14 12 10 9 10 11 13 13 14 12 10 10 11 12 13
28 24 24 23 26 30 31 23 23 18 22 23 17 4 6 6 2 5 5 1 5 6 3 2 8 14 12 16 16 14 12 12 12 13 14 14 14 15 15 14 13 13 13 16
22 20 24 24 27 31 30 25 23 19 20 19 7 4 9 6 7 7 3 2 5 5 2 1 6 8 12 13 15 15 15 14 14 15 15 16 14 13 12 13 13 13 15 18
26 25 24 27 32 31 23 27 24 23 19 15 5 6 4 6 4 3 2 2 4 6 2 3 12 20 10 10 13 15 15 15 14 13 13 13 12 12 11 11 13 15 17 18
24 25 24 20 25 26 22 19 19 23 13 5 4 14 10 5 5 3 2 4 4 9 7 11 23 26 12 14 19 16 14 10 9 10 10 10 10 10 11 12 14 16 17 21
24 22 21 18 19 22 23 22 22 18 24 22 2 3 2 3 5 3 7 10 11 12 7 15 28 25 22 11 15 15 11 10 10 8 8 9 9 10 11 12 13 16 21 23
21 21 19 21 21 23 25 19 17 20 18 22 8 3 3 2 3 5 8 11 8 6 25 39 29 30 9 12 12 10 11 10 8 7 7 7 8 10 11 12 17 20 19 19
22 22 20 25 27 27 27 22 23 23 21 20 8 7 6 9 10 13 17 20 26 39 43 39 36 32 10 7 7 6 4 4 3 3 5 7 9 11 14 16 18 18 20 19
21 19 22 27 22 21 27 29 27 25 21 17 10 17 3 15 18 18 19 26 31 32 31 32 8 9 7 7 10 14 10 4 0 4 6 7 10 12 12 14 17 21 20 22
Wind_Direction
274 286 162 124 143 124 121 97 105 166 154 137 156 115 137 144 146 152 148 149 151 149 147 140 144 145 143 144 139 141 135 130 126 112 127 127 146 119 141 163 155 157 142 136
268 230 188 307 60 100 105 102 131 192 147 128 148 124 132 159 158 158 155 157 156 143 137 137 139 140 144 145 144 143 146 141 146 142 150 173 154 140 153 163 166 168 151 140
266 246 249 255 2 75 76 106 44 21 349 246 131 135 142 165 163 170 168 162 160 147 142 145 140 142 144 142 144 145 147 147 150 154 154 185 299 282 216 156 169 174 154 148
265 248 252 257 279 300 207 31 9 329 313 35 197 150 168 152 168 172 174 176 170 157 151 153 146 143 144 149 144 142 143 146 149 153 148 149 151 128 149 157 167 164 147 135
259 260 262 263 245 291 247 177 135 45 107 102 169 142 134 173 192 183 182 178 173 168 160 155 157 155 155 148 148 143 140 144 148 153 154 158 163 173 153 140 160 151 159 151
255 264 271 268 272 285 314 161 311 354 39 341 173 112 49 155 186 179 181 169 171 172 165 165 164 158 157 155 152 148 147 149 149 152 155 156 160 142 126 178 150 152 147 143
259 255 264 275 276 285 340 303 299 306 313 333 329 345 351 197 184 167 166 168 168 170 163 164 162 160 156 158 157 154 154 155 155 154 154 157 158 152 137 134 158 145 144 148
260 256 259 270 277 282 282 290 288 290 292 300 326 344 343 131 171 147 90 148 159 170 173 167 171 159 161 162 162 160 157 156 156 156 151 151 142 146 160 143 114 144 157 168
263 259 264 265 278 283 279 266 287 283 292 299 315 328 327 10 118 139 137 134 155 164 170 173 173 174 159 162 165 166 160 158 154 155 144 141 149 148 134 147 138 142 156 179
267 258 259 261 284 277 273 285 270 283 279 288 302 312 330 2 122 152 157 156 127 136 210 184 177 177 167 168 166 168 166 159 156 149 147 140 139 150 152 128 137 156 177 176
283 263 249 281 281 276 264 278 276 281 288 292 298 304 318 314 141 146 165 144 130 139 125 232 207 194 172 166 160 166 165 166 150 145 143 135 129 139 150 141 178 263 145 152
185 277 260 274 285 277 256 279 280 270 276 293 303 298 313 200 148 138 150 110 139 155 150 160 159 181 186 164 137 165 182 164 155 143 141 137 133 139 162 199 203 214 136 130
291 273 251 264 276 290 269 281 286 280 283 279 291 295 303 282 149 150 135 119 156 156 162 179 175 179 178 169 154 94 194 172 151 139 135 134 138 142 155 179 195 195 188 166
297 291 272 256 262 292 273 269 273 277 269 272 293 289 290 280 158 166 130 132 146 161 171 174 172 166 176 177 147 155 153 160 148 134 132 131 137 141 148 161 183 194 189 196
307 290 273 256 269 282 269 276 270 269 262 269 276 306 248 210 347 150 151 141 146 152 163 163 148 160 165 163 152 154 150 148 135 125 127 131 129 136 143 142 102 113 74 17
311 296 271 251 267 275 273 272 278 258 259 266 274 279 282 290 13 137 137 143 148 157 159 153 150 157 159 162 155 149 143 134 125 116 100 77 93 121 148 157 154 149 61 18
291 306 277 258 261 275 262 260 286 281 259 258 275 276 271 273 251 101 122 138 150 156 157 156 159 164 157 159 154 149 136 127 114 90 75 100 107 121 126 109 76 85 89 348
267 276 285 273 265 250 247 268 284 286 288 279 272 272 261 215 202 351 33 125 123 211 156 154 146 147 150 149 145 135 129 123 104 95 94 97 99 105 94 74 70 52 34 30
258 276 271 271 266 256 258 276 296 309 299 297 301 279 191 181 229 296 325 36 100 101 92 277 150 140 141 142 139 137 132 124 114 104 103 93 89 91 83 77 65 47 27 9
276 282 271 271 260 249 251 285 279 296 298 297 307 157 165 214 238 265 294 122 106 86 18 311 254 145 143 144 142 137 131 122 114 105 97 94 92 76 61 58 57 34 14 358
268 275 276 270 255 257 277 277 295 278 288 288 292 267 170 174 237 191 183 161 124 109 102 338 250 236 157 152 142 137 129 120 110 97 86 79 75 69 55 38 16 8 3 2
270 271 272 284 265 259 286 281 285 288 300 312 324 266 277 291 298 261 235 190 238 262 319 297 234 235 229 145 140 133 128 111 98 88 80 68 55 40 26 20 12 8 10 355
267 272 274 281 286 278 271 268 288 301 274 281 280 299 247 293 322 351 320 303 290 274 269 223 220 225 220 149 141 136 126 117 112 93 74 58 33 31 28 16 17 6 349 350
275 277 278 275 280 280 268 283 303 313 318 306 303 154 211 62 354 46 73 86 59 221 199 200 215 214 164 151 149 144 135 131 122 107 91 59 56 30 20 14 357 349 358 1
273 279 281 272 273 276 269 278 290 299 304 330 309 116 126 111 104 97 108 107 116 140 158 178 190 173 157 179 176 184 172 147 119 76 359 40 23 15 5 5 4 5 4 8
273 283 277 278 276 284 275 275 274 288 289 299 306 245 150 130 128 118 118 132 145 146 151 159 168 137 228 251 282 257 248 208 186 82 65 13 6 4 18 15 17 9 23 20